TimeEDT,TemperatureF,Dew PointF,Humidity,Sea Level PressureIn,VisibilityMPH,Wind Direction,Wind SpeedMPH,Gust SpeedMPH,PrecipitationIn,Events,Conditions,WindDirDegrees,DateUTC
12:15 AM,39.2,35.6,87,30.04,10.0,East,8.1,-,0.01,,Overcast,100,2011-10-31 04:15:00
12:35 AM,39.2,35.6,87,30.03,10.0,East,10.4,-,0.01,,Overcast,90,2011-10-31 04:35:00
12:55 AM,39.2,35.6,87,30.03,10.0,East,12.7,-,0.01,,Overcast,90,2011-10-31 04:55:00
1:15 AM,39.2,35.6,87,30.03,10.0,East,12.7,-,N/A,,Overcast,90,2011-10-31 05:15:00
1:35 AM,39.2,35.6,87,30.02,10.0,East,13.8,-,N/A,,Overcast,100,2011-10-31 05:35:00
1:55 AM,41.0,35.6,81,30.02,10.0,ESE,12.7,-,N/A,,Overcast,110,2011-10-31 05:55:00
2:15 AM,41.0,35.6,81,30.02,10.0,East,11.5,-,N/A,,Overcast,100,2011-10-31 06:15:00
2:35 AM,41.0,35.6,81,30.01,10.0,East,12.7,-,N/A,,Overcast,100,2011-10-31 06:35:00
2:55 AM,41.0,37.4,87,30.01,10.0,East,12.7,-,N/A,,Overcast,100,2011-10-31 06:55:00
4:35 AM,42.8,37.4,81,29.99,10.0,East,11.5,-,N/A,,Overcast,100,2011-10-31 08:35:00
4:55 AM,42.8,37.4,81,29.99,10.0,East,11.5,-,N/A,,Overcast,90,2011-10-31 08:55:00
5:15 AM,42.8,37.4,81,29.99,10.0,ESE,9.2,-,N/A,,Overcast,110,2011-10-31 09:15:00
5:35 AM,42.8,37.4,81,29.99,10.0,ESE,12.7,-,N/A,,Overcast,120,2011-10-31 09:35:00
5:55 AM,42.8,35.6,76,29.99,10.0,SE,11.5,-,N/A,,Overcast,130,2011-10-31 09:55:00
6:15 AM,42.8,37.4,81,29.99,10.0,SE,11.5,-,N/A,,Overcast,130,2011-10-31 10:15:00
6:35 AM,42.8,35.6,76,29.98,10.0,SE,13.8,-,N/A,,Overcast,130,2011-10-31 10:35:00
6:55 AM,42.8,37.4,81,29.98,10.0,SE,11.5,-,N/A,,Overcast,130,2011-10-31 10:55:00
7:15 AM,42.8,37.4,81,29.99,10.0,SE,8.1,-,N/A,,Overcast,140,2011-10-31 11:15:00
7:55 AM,42.8,37.4,81,30.00,10.0,ESE,8.1,-,N/A,,Overcast,120,2011-10-31 11:55:00
8:15 AM,42.8,37.4,81,30.00,10.0,ESE,8.1,-,N/A,,Overcast,110,2011-10-31 12:15:00
8:35 AM,42.8,37.4,81,30.00,9.0,ESE,6.9,-,N/A,,Overcast,110,2011-10-31 12:35:00
8:55 AM,42.8,37.4,81,30.00,8.0,ESE,6.9,-,N/A,,Overcast,110,2011-10-31 12:55:00
9:15 AM,41.0,37.4,87,30.00,7.0,ESE,6.9,-,N/A,,Overcast,110,2011-10-31 13:15:00
9:35 AM,41.0,37.4,87,30.00,5.0,East,5.8,-,N/A,,Overcast,100,2011-10-31 13:35:00
9:55 AM,42.8,37.4,81,30.01,5.0,East,3.5,-,N/A,,Overcast,90,2011-10-31 13:55:00
10:15 AM,42.8,37.4,81,30.01,7.0,ESE,5.8,-,N/A,,Overcast,120,2011-10-31 14:15:00
10:35 AM,42.8,39.2,87,30.01,7.0,ESE,5.8,-,N/A,,Overcast,120,2011-10-31 14:35:00
11:55 AM,46.4,41.0,81,30.01,10.0,South,6.9,-,N/A,,Overcast,180,2011-10-31 15:55:00
12:15 PM,46.4,41.0,81,30.01,10.0,South,8.1,-,N/A,,Overcast,170,2011-10-31 16:15:00
12:35 PM,46.4,41.0,81,30.01,10.0,SSE,9.2,-,N/A,,Overcast,160,2011-10-31 16:35:00
12:55 PM,48.2,41.0,76,30.01,10.0,South,6.9,-,N/A,,Overcast,180,2011-10-31 16:55:00
1:15 PM,48.2,39.2,71,30.00,10.0,South,9.2,-,N/A,,Overcast,190,2011-10-31 17:15:00
1:35 PM,50.0,39.2,66,30.00,10.0,South,8.1,-,N/A,,Overcast,190,2011-10-31 17:35:00
1:55 PM,51.8,39.2,62,29.99,10.0,South,6.9,-,N/A,,Mostly Cloudy,190,2011-10-31 17:55:00
2:15 PM,50.0,39.2,66,29.99,10.0,South,11.5,-,N/A,,Mostly Cloudy,180,2011-10-31 18:15:00
2:35 PM,50.0,39.2,66,29.99,10.0,South,6.9,-,N/A,,Mostly Cloudy,170,2011-10-31 18:35:00
2:55 PM,50.0,39.2,66,29.99,10.0,South,8.1,-,N/A,,Overcast,170,2011-10-31 18:55:00
3:35 PM,50.0,39.2,66,30.00,10.0,WSW,5.8,-,N/A,,Overcast,250,2011-10-31 19:35:00
3:55 PM,50.0,39.2,66,30.01,10.0,SW,5.8,-,N/A,,Overcast,220,2011-10-31 19:55:00
4:15 PM,50.0,37.4,62,30.01,10.0,WSW,9.2,-,N/A,,Overcast,240,2011-10-31 20:15:00
4:35 PM,51.8,37.4,58,30.01,10.0,SSW,6.9,-,N/A,,Mostly Cloudy,210,2011-10-31 20:35:00
4:55 PM,50.0,35.6,58,30.01,10.0,South,5.8,-,N/A,,Scattered Clouds,190,2011-10-31 20:55:00
5:15 PM,50.0,35.6,58,30.01,10.0,South,5.8,-,N/A,,Partly Cloudy,170,2011-10-31 21:15:00
5:35 PM,48.2,35.6,62,30.02,10.0,South,4.6,-,N/A,,Clear,190,2011-10-31 21:35:00
5:55 PM,48.2,35.6,62,30.02,10.0,South,3.5,-,N/A,,Mostly Cloudy,180,2011-10-31 21:55:00
6:15 PM,46.4,35.6,66,30.02,10.0,Calm,Calm,-,N/A,,Overcast,0,2011-10-31 22:15:00
6:55 PM,46.4,35.6,66,30.04,10.0,SSE,3.5,-,N/A,,Overcast,160,2011-10-31 22:55:00
7:15 PM,46.4,35.6,66,30.05,10.0,Calm,Calm,-,N/A,,Overcast,0,2011-10-31 23:15:00
7:35 PM,46.4,35.6,66,30.05,10.0,SSW,3.5,-,N/A,,Overcast,200,2011-10-31 23:35:00
7:55 PM,46.4,35.6,66,30.06,10.0,SW,3.5,-,N/A,,Mostly Cloudy,220,2011-10-31 23:55:00
8:15 PM,44.6,35.6,71,30.06,10.0,Calm,Calm,-,N/A,,Mostly Cloudy,0,2011-11-01 00:15:00
8:35 PM,44.6,35.6,71,30.06,10.0,SSW,3.5,-,N/A,,Overcast,200,2011-11-01 00:35:00
8:55 PM,42.8,35.6,76,30.06,10.0,SE,3.5,-,N/A,,Overcast,140,2011-11-01 00:55:00
9:15 PM,42.8,37.4,81,30.06,10.0,South,3.5,-,N/A,,Overcast,180,2011-11-01 01:15:00
9:35 PM,42.8,37.4,81,30.07,10.0,South,3.5,-,N/A,,Overcast,180,2011-11-01 01:35:00
10:15 PM,44.6,37.4,76,30.07,10.0,Calm,Calm,-,N/A,,Overcast,0,2011-11-01 02:15:00
10:55 PM,44.6,37.4,76,30.07,10.0,Calm,Calm,-,N/A,,Overcast,0,2011-11-01 02:55:00
11:15 PM,42.8,37.4,81,30.07,10.0,SSW,4.6,-,N/A,,Overcast,200,2011-11-01 03:15:00
11:55 PM,42.8,37.4,81,30.07,10.0,SSW,3.5,-,N/A,,Overcast,200,2011-11-01 03:55:00